PAA115 LFPO-KMIA

Flight info

Callsign PAA115
Flight time N/A
Altitude 30000
Route LGL UN502 ARGED DCT SENLO DCT JSY DCT LIZAD DCT LESLU DCT MALOT/M083F300 DCT 5420N DCT 5430N DCT 5440N DCT 5350N DCT RIKAL/N0489F300 N572A TOPPS/N0483F360 DCT BEEKN Q97 KALDA DCT BGBRD Q101 SKARP Y313 HOAGG DCT ZBV FOWEE2
Aircraft L101/H-SDFGHIRWXY/S

Departure

Time 2026-05-04 12:47
Airport Paris-Orly Airport (LFPO)

Arrival

Time N/A
Airport Miami International Airport (KMIA)
Time Latitude Longitude Altitude Speed Heading
2026-05-04 12:46 48.71957 2.35943 296 ft 0 kts 76°
2026-05-04 12:46 48.71964 2.35985 295 ft 19 kts 76°
2026-05-04 12:47 48.72058 2.36496 298 ft 83 kts 74°
2026-05-04 12:47 48.72264 2.37616 295 ft 139 kts 74°
2026-05-04 12:47 48.72566 2.39262 463 ft 169 kts 75°
2026-05-04 12:47 48.72870 2.40936 1248 ft 164 kts 75°
2026-05-04 12:48 48.73193 2.42644 1739 ft 184 kts 76°
2026-05-04 12:48 48.73543 2.44721 2070 ft 222 kts 76°
2026-05-04 12:48 48.73786 2.47227 2399 ft 257 kts 93°
2026-05-04 12:48 48.73261 2.49865 2729 ft 269 kts 127°
2026-05-04 12:49 48.71885 2.51770 3477 ft 263 kts 147°
2026-05-04 12:49 48.70324 2.53185 4407 ft 261 kts 148°
2026-05-04 12:49 48.68824 2.54838 4917 ft 273 kts 134°
2026-05-04 12:49 48.67749 2.57149 5690 ft 270 kts 110°
2026-05-04 12:50 48.67593 2.59977 6154 ft 278 kts 71°
2026-05-04 12:50 48.68731 2.62301 6644 ft 286 kts 26°
2026-05-04 12:50 48.70671 2.62601 7110 ft 292 kts 335°
2026-05-04 12:50 48.72024 2.60452 7622 ft 293 kts 282°
2026-05-04 12:51 48.72014 2.57417 8473 ft 282 kts 264°
2026-05-04 12:51 48.71869 2.54544 9605 ft 271 kts 267°
2026-05-04 12:51 48.71764 2.51638 10033 ft 283 kts 264°
2026-05-04 12:51 48.71309 2.48681 10251 ft 297 kts 242°
2026-05-04 12:52 48.69841 2.46434 10251 ft 318 kts 200°
2026-05-04 12:52 48.67688 2.45649 10826 ft 318 kts 180°
2026-05-04 12:52 48.65534 2.46413 10998 ft 333 kts 139°
2026-05-04 12:52 48.64656 2.49590 10378 ft 366 kts 70°
2026-05-04 12:53 48.72031 2.35747 10186 ft 2 kts 120°
2026-05-04 12:54 48.71957 2.35943 297 ft 0 kts 76°
2026-05-04 12:54 48.72031 2.35747 296 ft 2 kts 120°
2026-05-04 12:55 48.71957 2.35943 297 ft 0 kts 76°